Tracking 29892 objects as of 21-Nov-2024
HD Live streaming from Space Station
objects crossing your sky now

SL-12 R/B(2)

Track SL-12 R/B(2) now!


NORAD ID: 21135
Int'l Code: 1991-014D
Perigee: 34,823.6 km
Apogee: 35,037.8 km
Inclination: 12.5 °
Period: 1,392.2 minutes
Semi major axis: 41301 km
RCS: 1.9816 m2 (large)
Launch date: February 28, 1991
Source: Commonwealth of Independent States (former USSR) (CIS)
Launch site: TYURATAM MISSILE AND SPACE COMPLEX (TTMTR)

Note: This is a ROCKET BODY
Your satellite tracking list
Your tracking list is empty




NASA's NSSDC Master Catalog

Two Line Element Set (TLE):
1 21135U 91014D   24325.69584113 -.00000113  00000-0  00000-0 0  9996
2 21135  12.5193 336.0276 0025938 137.2819  54.8905  1.03431042127414
Source of the keplerian elements: AFSPC